Location: Sabalos
(43.2860°N, 0.1414°E)
Time: 04:43:33
(UTC+00:00)

Cosmos 1680 Rocket - Pass Details

Date: 05 July 2020
Orbit: 760 x 781 km, 74.1° (Epoch: 06 August)

Event Time Altitude Azimuth Distance (km) Brightness Sun altitude
Exits shadow 23:15:57 26° 236° (SW) 1,485 4.8 -23.1°
Maximum altitude 23:18:34 48° 295° (WNW) 1,021 4.3 -23.2°
Drops below altitude 10° 23:23:43 10° 10° (N) 2,345 7.0 -23.4°
Sets 23:26:13 0° 16° (NNE) 3,276 7.8 -23.5°
